EN

Hourly Weather Momynay

Today, 24 November, Tuesday

Time Temperature Precipitation Wind Pressure Humidity
00:00 -7°C° 0 mm 2 mps 692 mmHg 43%
01:00 -7°C° 0 mm 2 mps 692 mmHg 42%
02:00 -7°C° 0 mm 2 mps 692 mmHg 41%
03:00 -6°C° 0 mm 2 mps 692 mmHg 40%
04:00 -6°C° 0 mm 2 mps 692 mmHg 40%
05:00 -6°C° 0 mm 2 mps 692 mmHg 40%
06:00 -6°C° 0 mm 2 mps 692 mmHg 40%
07:00 -6°C° 0 mm 2 mps 692 mmHg 40%
08:00 -6°C° 0 mm 2 mps 692 mmHg 40%
09:00 -2°C° 0 mm 1 mps 692 mmHg 45%
10:00 0°C° 0 mm 1 mps 692 mmHg 50%
11:00 +1°C° 0 mm 0 mps 692 mmHg 56%
12:00 +1°C° 0 mm 0 mps 692 mmHg 58%
13:00 +1°C° 0 mm 0 mps 692 mmHg 60%
14:00 +1°C° 0 mm 0 mps 691 mmHg 62%
15:00 0°C° 0 mm 0 mps 691 mmHg 60%
16:00 -2°C° 0 mm 0 mps 691 mmHg 59%
17:00 -3°C° 0 mm 0 mps 691 mmHg 57%
18:00 -2°C° 0 mm 1 mps 691 mmHg 56%
19:00 -2°C° 0 mm 1 mps 691 mmHg 54%
20:00 -2°C° 0 mm 1 mps 691 mmHg 52%
21:00 -2°C° 0 mm 1 mps 691 mmHg 52%
22:00 -2°C° 0 mm 1 mps 691 mmHg 52%
23:00 -2°C° 0 mm 1 mps 691 mmHg 52%

Tomorrow, 25 November, Wednesday

Time Temperature Precipitation Wind Pressure Humidity
00:00 -2°C° 0 mm 1 mps 691 mmHg 52%
01:00 -2°C° 0 mm 1 mps 691 mmHg 52%
02:00 -2°C° 0 mm 1 mps 691 mmHg 52%
03:00 -2°C° 0 mm 1 mps 691 mmHg 52%
04:00 -2°C° 0 mm 1 mps 691 mmHg 52%
05:00 -2°C° 0 mm 1 mps 692 mmHg 52%
06:00 -2°C° 0 mm 1 mps 692 mmHg 52%
07:00 -2°C° 0 mm 1 mps 692 mmHg 52%
08:00 -2°C° 0 mm 1 mps 692 mmHg 53%
09:00 -1°C° 0 mm 1 mps 692 mmHg 54%
10:00 +1°C° 0 mm 1 mps 693 mmHg 56%
11:00 +2°C° 0 mm 1 mps 693 mmHg 58%
12:00 +2°C° 0 mm 1 mps 693 mmHg 60%
13:00 +2°C° 0 mm 1 mps 693 mmHg 61%
14:00 +3°C° 0 mm 1 mps 693 mmHg 63%
15:00 +2°C° 0 mm 1 mps 693 mmHg 65%
16:00 +1°C° 0 mm 1 mps 693 mmHg 66%
17:00 0°C° 0 mm 1 mps 693 mmHg 68%
18:00 0°C° 0 mm 1 mps 693 mmHg 70%
19:00 0°C° 0 mm 1 mps 693 mmHg 72%
20:00 0°C° 0 mm 1 mps 693 mmHg 74%
21:00 0°C° 0 mm 1 mps 693 mmHg 74%
22:00 0°C° 0 mm 1 mps 693 mmHg 74%
23:00 0°C° 0 mm 1 mps 693 mmHg 74%

Day after tomorrow, 26 November, Thursday

Time Temperature Precipitation Wind Pressure Humidity
00:00 0°C° 0 mm 1 mps 693 mmHg 73%
01:00 -1°C° 0 mm 1 mps 693 mmHg 72%
02:00 -3°C° 0 mm 2 mps 693 mmHg 71%
03:00 -3°C° 0 mm 2 mps 693 mmHg 69%
04:00 -3°C° 0 mm 2 mps 693 mmHg 67%
05:00 -4°C° 0 mm 2 mps 693 mmHg 64%
06:00 -5°C° 0 mm 3 mps 693 mmHg 62%
07:00 -4°C° 0 mm 3 mps 693 mmHg 60%
08:00 -4°C° 0 mm 3 mps 693 mmHg 58%
09:00 -2°C° 0 mm 3 mps 694 mmHg 59%
10:00 +1°C° 0 mm 2 mps 694 mmHg 61%
11:00 +3°C° 0 mm 2 mps 694 mmHg 62%
12:00 +4°C° 0 mm 2 mps 694 mmHg 62%
13:00 +4°C° 0 mm 2 mps 693 mmHg 63%
14:00 +5°C° 0 mm 2 mps 693 mmHg 64%
15:00 +4°C° 0 mm 2 mps 693 mmHg 61%
16:00 +3°C° 0 mm 2 mps 693 mmHg 58%
17:00 +3°C° 0 mm 2 mps 693 mmHg 55%
18:00 +3°C° 0 mm 2 mps 693 mmHg 54%
19:00 +3°C° 0 mm 2 mps 693 mmHg 53%
20:00 +3°C° 0 mm 2 mps 693 mmHg 52%
21:00 +4°C° 0 mm 2 mps 692 mmHg 52%
22:00 +3°C° 0 mm 3 mps 692 mmHg 52%
23:00 +3°C° 0 mm 3 mps 692 mmHg 51%

27 November, Friday

Time Temperature Precipitation Wind Pressure Humidity
00:00 +3°C° 0 mm 3 mps 692 mmHg 52%
01:00 +4°C° 0 mm 3 mps 691 mmHg 52%
02:00 +5°C° 0 mm 2 mps 691 mmHg 53%
03:00 +4°C° 0 mm 3 mps 691 mmHg 53%
04:00 +4°C° 0 mm 3 mps 691 mmHg 53%
05:00 +4°C° 0 mm 3 mps 691 mmHg 53%
06:00 +4°C° 0 mm 3 mps 691 mmHg 53%
07:00 +4°C° 0 mm 3 mps 690 mmHg 53%
08:00 +5°C° 0 mm 3 mps 690 mmHg 54%
09:00 +5°C° 0 mm 3 mps 690 mmHg 57%
10:00 +7°C° 0 mm 3 mps 690 mmHg 59%
11:00 +8°C° 0 mm 3 mps 690 mmHg 62%
12:00 +8°C° 0 mm 2 mps 690 mmHg 62%
13:00 +8°C° 0 mm 2 mps 690 mmHg 63%
14:00 +8°C° 0 mm 2 mps 690 mmHg 63%
15:00 +7°C° 0.1 mm 2 mps 690 mmHg 62%
16:00 +6°C° 0.1 mm 2 mps 690 mmHg 61%
17:00 +5°C° 0.1 mm 2 mps 690 mmHg 61%
18:00 +5°C° 0 mm 2 mps 690 mmHg 60%
19:00 +5°C° 0 mm 2 mps 691 mmHg 60%
20:00 +5°C° 0 mm 3 mps 691 mmHg 59%
21:00 +4°C° 0.6 mm 3 mps 691 mmHg 65%
22:00 +4°C° 0.6 mm 2 mps 691 mmHg 71%
23:00 +3°C° 0.6 mm 2 mps 691 mmHg 76%

28 November, Saturday

Time Temperature Precipitation Wind Pressure Humidity
00:00 +1°C° 1.4 mm 4 mps 692 mmHg 83%
01:00 +1°C° 1.4 mm 5 mps 693 mmHg 89%
02:00 -1°C° 1.4 mm 6 mps 694 mmHg 96%
03:00 -2°C° 3.5 mm 6 mps 694 mmHg 96%
04:00 -3°C° 3.5 mm 6 mps 695 mmHg 97%
05:00 -4°C° 3.5 mm 6 mps 696 mmHg 98%
06:00 -5°C° 1.8 mm 5 mps 697 mmHg 97%
07:00 -5°C° 1.8 mm 5 mps 699 mmHg 97%
08:00 -5°C° 1.8 mm 5 mps 700 mmHg 97%
09:00 -5°C° 0.2 mm 5 mps 701 mmHg 94%
10:00 -5°C° 0.2 mm 5 mps 701 mmHg 92%
11:00 -4°C° 0.2 mm 5 mps 702 mmHg 90%
12:00 -3°C° 0 mm 4 mps 702 mmHg 89%
13:00 -3°C° 0 mm 4 mps 702 mmHg 88%
14:00 -2°C° 0 mm 3 mps 703 mmHg 86%
15:00 -4°C° 0 mm 3 mps 703 mmHg 84%
16:00 -5°C° 0 mm 2 mps 702 mmHg 82%
17:00 -4°C° 0 mm 1 mps 702 mmHg 80%
18:00 -7°C° 0 mm 2 mps 702 mmHg 73%
19:00 -7°C° 0 mm 2 mps 702 mmHg 67%
20:00 -7°C° 0 mm 2 mps 702 mmHg 60%
21:00 -7°C° 0 mm 2 mps 702 mmHg 55%
22:00 -7°C° 0 mm 2 mps 702 mmHg 50%
23:00 -7°C° 0 mm 2 mps 701 mmHg 45%

29 November, Sunday

Time Temperature Precipitation Wind Pressure Humidity
00:00 -7°C° 0 mm 2 mps 701 mmHg 43%
01:00 -7°C° 0 mm 2 mps 701 mmHg 42%
02:00 -6°C° 0 mm 2 mps 701 mmHg 40%
03:00 -6°C° 0 mm 2 mps 701 mmHg 40%
04:00 -6°C° 0 mm 2 mps 700 mmHg 39%
05:00 -6°C° 0 mm 2 mps 700 mmHg 39%
06:00 -5°C° 0 mm 2 mps 700 mmHg 39%
07:00 -5°C° 0 mm 2 mps 700 mmHg 39%
08:00 -5°C° 0 mm 2 mps 700 mmHg 39%
09:00 -3°C° 0 mm 2 mps 700 mmHg 47%
10:00 -1°C° 0 mm 2 mps 700 mmHg 55%
11:00 +2°C° 0 mm 1 mps 700 mmHg 63%
12:00 +3°C° 0 mm 1 mps 699 mmHg 65%
13:00 +3°C° 0 mm 1 mps 699 mmHg 68%
14:00 +3°C° 0 mm 1 mps 699 mmHg 70%
15:00 +2°C° 0 mm 1 mps 698 mmHg 64%
16:00 -1°C° 0 mm 2 mps 698 mmHg 59%
17:00 -2°C° 0 mm 2 mps 698 mmHg 53%
18:00 -2°C° 0 mm 2 mps 698 mmHg 50%
19:00 -2°C° 0 mm 2 mps 698 mmHg 47%
20:00 -2°C° 0 mm 2 mps 698 mmHg 44%
21:00 -2°C° 0 mm 2 mps 697 mmHg 43%
22:00 -2°C° 0 mm 3 mps 697 mmHg 42%
23:00 -2°C° 0 mm 3 mps 697 mmHg 41%
Show more

We Need Your Consent

Meteoprog and our Service Providers may store and access personal data such as cookies, device identifiers or other similar technologies on your device and process such data to personalise content and ads, as well as provide social media features and to analyse the traffic.

  • Store and/or access information on your device

    Cookies, device identifiers or other information can be stored or accessed on your device for the purposes indicated above.

  • Personalised ads and content, ad and content measurement, audience insights, and products development

    Ads and content can be personalised based on a profile. More data can be added to better personalise ads and content. Ad and content performance can be measured. Insights about the audience who saw the ads and content can be derived. Such data can be used to develop or improve user’s experience, systems and software.

By clicking ‘I Agree’ you will allow the use of indicated cookies, device identifiers, web beacons or other similar technologies. Your settings can be changed in the browser on your device.

For certain purposes, legitimate interests may be relied on, rather than consent. You can read more about this in our Privacy and Cookie Policy.